Location: �quirre
(50.4736°N, 2.2351°E)
Time: 07:42:14
(UTC+00:00)

Okean 1 Rocket - Pass Details

Date: 07 August 2020
Orbit: 607 x 634 km, 82.5° (Epoch: 26 September)

Event Time Altitude Azimuth Distance (km) Brightness Sun altitude
Exits shadow 02:38:10 22° 242° (WSW) 1,341 4.2 -14.4°
Maximum altitude 02:40:11 33° 289° (WNW) 1,034 4.0 -14.2°
Drops below altitude 10° 02:44:09 10° 354° (N) 1,980 6.3 -13.8°
Sets 02:46:34 0° 4° (N) 2,893 7.4 -13.5°
